Liberia, Costa Rica

8:15 AM CST on February 12, 2016 (GMT -0600)
Liberia

Weather History for 78774 - October, 2012

Change the Weather History Date:

Sunday, October 14, 2012

  Actual Average Record
Temperature  
Mean Temperature 78 °F -  
Max Temperature 86 °F 84 °F - ()
Min Temperature 70 °F 73 °F - ()
Cooling Degree Days 13    
Growing Degree Days 28 (Base 50)    
Moisture  
Dew Point 73 °F    
Average Humidity 89    
Maximum Humidity 100    
Minimum Humidity 66    
Precipitation  
Precipitation 0.00 in - - ()
Sea Level Pressure  
Sea Level Pressure 29.88 in    
Wind  
Wind Speed 3 mph ()    
Max Wind Speed 10 mph    
Max Gust Speed -    
Visibility 5.6 miles    
Events Fog , Rain , Thunderstorm    
T = Trace of Precipitation, MM = Missing Value Source: Averaged Metar Reports

Daily Weather History Graph

Daily Weather History Graph

Search for Another Location

Airport or City:

Trip Planner

Search our weather history database for the weather conditions in past years. The results will help you decide how hot, cold, wet, or windy it might be!

Date:

Astronomy

Oct. 14, 2012 Rise Set
Actual Time 5:30 AM CST 5:24 PM CST
Civil Twilight 5:09 AM CST 5:46 PM CST
Nautical Twilight 4:45 AM CST 6:10 PM CST
Astronomical Twilight 4:20 AM CST 6:35 PM CST
Moon 4:33 AM CST (10/14) 4:46 PM CST (10/14)
Length of Visible Light 12h 36m
Length of Day
11h 53m
Waning Crescent, 1% of the Moon is Illuminated
Oct 14
Waning Crescent
Oct 15
New
Oct 21
First Quarter
Oct 29
Full
Nov 6
Last Quarter

Hourly Weather History & Observations

Time (CST) Temp. Heat Index Dew Point Humidity Pressure Visibility Wind Dir Wind Speed Gust Speed Precip Events Conditions
6:00 AM 72 °F - 71 °F 96% 29.89 in 0 mi West 3.5 mph - - Fog Partial Fog
6:00 AM 71.6 °F - 71.6 °F 100% 29.88 in 0.2 mi West 3.5 mph - N/A Fog Fog
6:45 AM 73.4 °F - 71.6 °F 94% 29.90 in 1.2 mi Calm Calm - N/A   Mostly Cloudy
7:00 AM 73.4 °F - 71.6 °F 94% 29.90 in 6.2 mi Calm Calm - N/A Fog Patches of Fog
8:00 AM 77.0 °F - 73.4 °F 89% 29.91 in 6.2 mi SSW 2.3 mph - N/A   Mostly Cloudy
9:00 AM 78 °F - 74 °F 84% 29.93 in 12 mi SW 3.5 mph - -   Partly Cloudy
9:00 AM 77.0 °F - 73.4 °F 89% 29.92 in 6.2 mi SW 3.5 mph - N/A   Mostly Cloudy
10:00 AM 80.6 °F 85.4 °F 73.4 °F 79% 29.91 in 6.2 mi SW 4.6 mph - N/A   Overcast
11:00 AM 86.0 °F 95.1 °F 75.2 °F 70% 29.89 in 6.2 mi West 4.6 mph - N/A   Mostly Cloudy
12:00 PM 85 °F - 75 °F 66% 29.87 in 3 mi West 6.9 mph - -   Overcast
12:00 PM 84.2 °F 92.3 °F 75.2 °F 74% 29.86 in 6.2 mi West 6.9 mph - N/A Rain Rain
1:00 PM 77.0 °F - 71.6 °F 83% 29.84 in 2.5 mi South 10.4 mph - N/A Rain , Thunderstorm Light Thunderstorms and Rain
1:30 PM 75.2 °F - 73.4 °F 94% 29.83 in 6.2 mi South 10.4 mph - N/A Rain Light Rain
2:00 PM 75.2 °F - 73.4 °F 94% 29.83 in 6.2 mi North 3.5 mph - N/A Rain Light Rain
3:00 PM 73.4 °F - 73.4 °F 100% 29.83 in 6.2 mi SSW 3.5 mph - N/A   Mostly Cloudy
4:00 PM 75.2 °F - 73.4 °F 94% 29.83 in 6.2 mi East 3.5 mph - N/A   Mostly Cloudy
5:00 PM 75.2 °F - 73.4 °F 94% 29.85 in 6.2 mi Calm Calm - N/A Rain Light Rain
6:00 PM 74 °F - 73 °F 97% 29.88 in 12 mi Calm Calm - -   Partly Cloudy
6:00 PM 75.2 °F - 73.4 °F 94% 29.86 in 6.2 mi Calm Calm - N/A Rain Light Rain
7:00 PM 75.2 °F - 73.4 °F 94% 29.88 in 6.2 mi ESE 3.5 mph - N/A   Overcast
8:00 PM 75.2 °F - 73.4 °F 94% 29.91 in 6.2 mi Calm Calm - N/A   Overcast